NOAA 16 DEB

Satellite information

Favourite Embed

Satellite Type and Status

DEBRISIN ORBIT

Key statistics

Satellite NOAA 16 DEB at a glance.

Uptime

9215

Days in orbit

Revolutions

≈ 14.2

Per day

Orbit

SSO

Sun Synchronous Orbit

Inclination

99.0

Latest

Satellite identification and parameters

Extended collection of information and parameters for NOAA 16 DEB.

Object identification

Identified? True

Debris? True

Object name: NOAA 16 DEB

International designator: 2000-055BW

Object number (NORAD): 41139

Object ID (CCSDS): 41139

Country: UNITED STATES OF AMERICA (US)

Current information (Y/N): Y

RCS size: SMALL

Orbital parameters

Period: 101.683 minutes

Inclination: 98.9924 deg

SMA: 7216.507 km

Apoapsis: 882.762 km

Periapsis: 793.981 km

RAAN: 45.8947 deg

Eccentricy: 0.0061513

Argument of periapsis: 189.8121 deg

Mean anomaly: 170.1856 deg

Mean motion: 14.16159753 rev/day

Mean motion (dot): 0.00007719 rev/day2

B* drag term: 0.0038499501 1/REarth

Two-line elements (TLE)

Creation date: Dec. 13, 2025, 5:47 p.m.

Reference frame: TEME

Reference center: EARTH

Epoch: Dec. 13, 2025, 3:06 a.m. UTC

TLE line 0: 0 NOAA 16 DEB

TLE line 1: 1 41139U 00055BW 25347.12949921 .00007719 00000-0 38500-2 0 9998

TLE line 2: 2 41139 98.9924 45.8947 0061513 189.8121 170.1856 14.16159753513092

Live tracking on map

Real-time ground track for satellite NOAA 16 DEB.

In-orbit conjunctions

A list of the most updated potential collisions computed for object NOAA 16 DEB.

Target Orbit TCA Probability of collision Miss distance Type
FENGYUN 1C DEB SSO 2024-11-08 07:34:07 0.0003147193 360.0 (m) DEBRIS
COSMOS 1275 DEB LEO 2024-11-07 23:56:03 0.0002212076 962.0 (m) DEBRIS
THOR ABLESTAR DEB LEO 2024-09-06 07:58:43 0.0001287397 127.0 (m) DEBRIS

Associated space launch

The NOAA K, L and M POES satellites begin the fifth generation of improved environmental monitoring in support of NOAA missions. The instrument payload has significant improvements and additions/deletions. The instrument changes have effected the spacecraft subsystems and data formats.

NOAA 16 DEB was lifted into orbit during the mission ‘Titan II SLV | NOAA 16’, on board a Titan II SLV space rocket.

The launch took place on Sept. 21, 2000, 10:22 a.m. from Space Launch Complex 4W.

For more information about the launch, click the button.

Launch to space Titan II SLV | NOAA 16
Titan II SLV | NOAA 16

Agency: N/A

Status: Launch Successful

Launch date: Sept. 21, 2000, 10:22 a.m. UTC

Rocket: Titan II SLV

Launch pad: Space Launch Complex 4W

Location: Vandenberg SFB, CA, USA

...

Latest news about this satellite

There are no fresh news available about this satellite. Check back as we update our databases every day.


Newsletter sign-up

Weekly statistics, charts and insights to help you stay on top of the space industry.